Home > Weather > Tacoma > Past weeks

Flag for USA Past Weather in Tacoma, Washington, USA — Yesterday and Last 2 Weeks

Now
75 °F

Sunny.


Feels Like: 78 °F
Forecast: 57 / 82 °F
Wind: 7 mph from West

Location: Tacoma Narrows Airport

Current Time: Jul 25, 2016 at 1:16:24 PM

Latest Report: Jul 25, 2016 at 11:53 AM


Visibility: 10 mi

Pressure: 30.07 "Hg

Humidity: 52%

Dew Point: 56 °F

Location of TacomaLocation

Past Weather in Tacoma — Graph

°F

Tacoma Temperature Yesterday

Maximum temperature yesterday: 78 °F (at 5:53 PM)
Minimum temperature yesterday: 54 °F (at 3:53 AM)
Average temperature yesterday: 66 °F

High & Low Weather Summary for the Past Weeks

 TemperatureHumidityPressure
High79 °F (Jul 21, 2:53 PM)97% (Jul 22, 4:03 AM)30.28 "Hg (Jul 22, 4:03 AM)
Low54 °F (Jul 11, 2:53 AM)36% (Jul 20, 5:53 PM)29.89 "Hg (Jul 17, 6:53 PM)
Average64 °F69%30.10 "Hg
* Reported Jul 10 11:53 AM — Jul 25 11:53 AM, Tacoma, Weather by CustomWeather, © 2016

Note: Actual official high and low records may vary slightly from our data, if they occured in-between our weather recording intervals... More about our weather records

Advertising

Tacoma Weather History for the Previous 24 Hours

Scroll right to see more
 ConditionsComfort  
Time TempWeatherWind HumidityBarometerVisibility
11:53 AM
Mon, Jul 25
75 °FSunny.7 mph52%30.07 "Hg10 mi
10:53 AM72 °FSunny.3 mph55%30.07 "Hg10 mi
9:53 AM67 °FSunny.7 mph68%30.08 "Hg10 mi
8:53 AM65 °FSunny.5 mph73%30.07 "Hg10 mi
7:53 AM62 °FSunny.5 mph80%30.09 "Hg10 mi
6:53 AM60 °FSunny.No wind80%30.08 "Hg10 mi
5:53 AM58 °FClear.No wind84%30.06 "Hg10 mi
4:53 AM58 °FClear.No wind84%30.06 "Hg10 mi
3:53 AM59 °FClear.No wind81%30.03 "Hg10 mi
2:53 AM61 °FClear.No wind75%30.03 "Hg10 mi
1:53 AM61 °FClear.No wind75%30.03 "Hg10 mi
12:53 AM64 °FClear.No wind68%30.03 "Hg10 mi
11:53 PM
Sun, Jul 24
65 °FClear.8 mph63%30.02 "Hg10 mi
10:53 PM66 °FClear.14 mph61%30.03 "Hg10 mi
9:53 PM68 °FClear.7 mph57%30.02 "Hg10 mi
8:53 PM71 °FSunny.6 mph51%30.00 "Hg10 mi
7:53 PM73 °FSunny.9 mph46%30.01 "Hg10 mi
6:53 PM76 °FSunny.10 mph40%30.01 "Hg10 mi
5:53 PM78 °FSunny.14 mph37%30.02 "Hg10 mi
4:53 PM77 °FSunny.12 mph40%30.04 "Hg10 mi
3:53 PM76 °FSunny.10 mph42%30.06 "Hg10 mi
2:53 PM75 °FSunny.8 mph42%30.07 "Hg10 mi
1:53 PM73 °FSunny.13 mph43%30.09 "Hg10 mi
Weather by CustomWeather, © 2016

See weather overviewHow to use our weather pages